Estevan,

10:21 PM CST on April 25, 2018 (GMT -0600)
Estevan

Weather History for CYEN - October, 2012

Change the Weather History Date:

Saturday, October 27, 2012

  Actual Average Record
Temperature  
Mean Temperature 20 °F -  
Max Temperature 28 °F 37 °F 66 °F (2005)
Min Temperature 11 °F 18 °F 7 °F (2017)
Degree Days  
Heating Degree Days 46    
Moisture  
Dew Point 13 °F    
Average Humidity 71    
Maximum Humidity 93    
Minimum Humidity 41    
Precipitation  
Precipitation 0.00 in 0.02 in - ()
Sea Level Pressure  
Sea Level Pressure 30.36 in    
Wind  
Wind Speed 5 mph ()    
Max Wind Speed 9 mph    
Max Gust Speed -    
Visibility 15.0 miles    
Events Snow    
Averages and records for this station are not official NWS values.
T = Trace of Precipitation, MM = Missing Value Source: Averaged Metar Reports

Daily Weather History Graph

Daily Weather History Graph

Search for Another Location

Airport or City:

Astronomy

Oct. 27, 2012 Rise Set
Actual Time 7:32 AM CST 5:38 PM CST
Civil Twilight 6:59 AM CST 6:11 PM CST
Nautical Twilight 6:22 AM CST 6:48 PM CST
Astronomical Twilight 5:45 AM CST 7:25 PM CST
Moon 4:30 PM CST (10/27) 5:22 AM CST (10/27)
Length of Visible Light 11h 11m
Length of Day
10h 05m
Waxing Gibbous, 96% of the Moon is Illuminated
Oct 27
Waxing Gibbous
Oct 29
Full
Nov 6
Last Quarter
Nov 13
New
Nov 20
First Quarter

Hourly Weather History & Observations

Time (CST) Temp. Windchill Dew Point Humidity Pressure Visibility Wind Dir Wind Speed Gust Speed Precip Events Conditions
12:00 AM 24 °F - 20 °F 76% 30.33 in 15 mi West 5.8 mph - - Snow Light Snow
12:00 AM 24.8 °F 17.9 °F 19.4 °F 80% 30.33 in 15.0 mi West 5.8 mph - N/A Snow Light Snow
12:21 AM - - - N/A% - 15.0 mi West 4.6 mph - N/A   Overcast
12:51 AM - - - N/A% - 15.0 mi West 5.8 mph - N/A   Unknown
1:00 AM 24.8 °F 17.9 °F 19.4 °F 80% 30.32 in 15.0 mi West 5.8 mph - N/A Snow Light Snow
2:00 AM 21.2 °F 13.6 °F 17.6 °F 86% 30.33 in 15.0 mi West 5.8 mph - N/A   Overcast
3:00 AM 19.4 °F 12.8 °F 17.6 °F 93% 30.33 in 15.0 mi SW 4.6 mph - N/A   Scattered Clouds
4:00 AM 15.8 °F 7.2 °F 14.0 °F 93% 30.32 in 15.0 mi SW 5.8 mph - N/A   Partly Cloudy
5:00 AM 14.0 °F 3.9 °F 12.2 °F 93% 30.33 in 15.0 mi West 6.9 mph - N/A   Partly Cloudy
6:00 AM 14 °F - 12 °F 87% 30.36 in 15 mi West 5.8 mph - -   Partly Cloudy
6:00 AM 14.0 °F 5.1 °F 12.2 °F 93% 30.36 in 15.0 mi West 5.8 mph - N/A   Partly Cloudy
7:00 AM 14.0 °F 6.5 °F 10.4 °F 86% 30.37 in 15.0 mi West 4.6 mph - N/A   Partly Cloudy
8:00 AM 12.2 °F - 10.4 °F 92% 30.38 in 15.0 mi Calm Calm - N/A   Partly Cloudy
10:00 AM 21.2 °F 10.9 °F 12.2 °F 68% 30.39 in 15.0 mi North 9.2 mph - N/A   Partly Cloudy
11:00 AM 24.8 °F 19.1 °F 12.2 °F 59% 30.38 in 15.0 mi NNW 4.6 mph - N/A   Partly Cloudy
12:00 PM 26 °F - 12 °F 41% 30.37 in 15 mi North 5.8 mph - -   Scattered Clouds
12:00 PM 26.6 °F 20.0 °F 12.2 °F 55% 30.37 in 15.0 mi North 5.8 mph - N/A   Partly Cloudy
1:00 PM 26.6 °F 20.0 °F 12.2 °F 55% 30.35 in 15.0 mi NNW 5.8 mph - N/A   Partly Cloudy
2:00 PM 26.6 °F 17.5 °F 10.4 °F 51% 30.34 in 15.0 mi North 9.2 mph - N/A   Partly Cloudy
3:00 PM 28.4 °F 20.4 °F 10.4 °F 47% 30.34 in 15.0 mi NW 8.1 mph - N/A   Scattered Clouds
4:00 PM 28.4 °F 20.4 °F 12.2 °F 51% 30.34 in 15.0 mi NNW 8.1 mph - N/A   Partly Cloudy
5:00 PM 24.8 °F 16.1 °F 10.4 °F 54% 30.35 in 15.0 mi NNW 8.1 mph - N/A   Partly Cloudy
6:00 PM 22 °F - 11 °F 50% 30.37 in 15 mi NNW 4.6 mph - -   Scattered Clouds
6:00 PM 23.0 °F 18.4 °F 10.4 °F 59% 30.37 in 15.0 mi NNW 3.5 mph - N/A   Partly Cloudy
7:00 PM 21.2 °F 14.9 °F 12.2 °F 68% 30.38 in 15.0 mi NNW 4.6 mph - N/A   Scattered Clouds
8:00 PM 17.6 °F 8.2 °F 10.4 °F 73% 30.38 in 15.0 mi NNW 6.9 mph - N/A   Scattered Clouds
9:00 PM 17.6 °F 9.3 °F 10.4 °F 73% 30.38 in 15.0 mi NNW 5.8 mph - N/A   Partly Cloudy
10:00 PM 15.8 °F 10.2 °F 10.4 °F 79% 30.39 in 15.0 mi NNW 3.5 mph - N/A   Clear
11:00 PM 17.6 °F 10.7 °F 12.2 °F 79% 30.38 in 15.0 mi NNW 4.6 mph - N/A   Mostly Cloudy